Surface/Precipitation History
11/22/2014 15:12  to  11/23/2014 15:12
Change End Date:
Date/Time
(MST)
Sf
Temp Chem Water Layer Surface Precipitation
Sf Sub Frz Factor Pct Depth IcePct Cond Salin Type Intens Accum Rate
11/23/2014 14:31 Wet 38.5F 31F 32F 15 0% 0.00 in 0% 3 mhos 0 None None - -
11/23/2014 14:26 Wet 38.5F 31F 32F 35 0% 0.00 in 0% 3 mhos 0 None None - -
11/23/2014 14:16 Wet 39.0F 31F 32F 15 0% 0.00 in 0% 3 mhos 0 None None - -
11/23/2014 14:05 Wet 40.5F 31F 32F 65 0% 0.00 in 0% 3 mhos 0 None None - -
11/23/2014 14:01 Wet 39.4F 31F 32F 95 0% 0.00 in 0% 3 mhos 0 None None - -
11/23/2014 13:55 Wet 39.6F 31F 32F 55 0% 0.00 in 0% 4 mhos 0 None None - -
11/23/2014 13:45 Wet 41.9F 31F 32F 25 0% 0.00 in 0% 4 mhos 0 None None - -
11/23/2014 13:35 Wet 39.4F 31F 32F 65 0% 0.00 in 0% 4 mhos 0 None None - -
11/23/2014 13:31 Wet 37.9F 31F 32F 70 0% 0.00 in 0% 4 mhos 0 None None - -
11/23/2014 13:25 Wet 40.3F 31F 32F 55 0% 0.00 in 0% 4 mhos 0 None None - -
11/23/2014 13:15 Wet 38.3F 31F 32F 95 0% 0.00 in 0% 4 mhos 0 None None - -
11/23/2014 13:05 Wet 36.9F 31F 32F 90 0% 0.00 in 0% 4 mhos 0 None None - -
11/23/2014 13:01 Wet 37.2F 31F 32F 95 0% 0.00 in 0% 3 mhos 0 None None - -
11/23/2014 12:55 Wet 40.1F 31F 32F 90 0% 0.00 in 0% 4 mhos 0 None None - -
11/23/2014 12:45 Wet 35.6F 31F 32F 90 0% 0.00 in 0% 3 mhos 0 None None - -
Date/Time
(MST)
Sf
Temp Chem Water Layer Surface Precipitation
Sf Sub Frz Factor Pct Depth IcePct Cond Salin Type Intens Accum Rate
11/23/2014 12:35 Wet 34.9F 31F 32F 95 0% 0.00 in 0% 3 mhos 0 None None - -
11/23/2014 12:31 Wet 37.9F 31F 32F 95 0% 0.00 in 0% 3 mhos 0 None None - -
11/23/2014 12:25 Wet 39.6F 31F 32F 95 0% 0.00 in 0% 3 mhos 0 None None - -
11/23/2014 12:15 Wet 36.5F 31F 32F 95 0% 0.00 in 0% 2 mhos 0 None None - -
11/23/2014 12:05 Ice Warning 31.6F 31F 32F 90 0% - 100% 1 mhos 0 None None - -
11/23/2014 12:01 Ice Warning 30.9F 31F 32F 85 0% - 100% 1 mhos 0 None None - -
11/23/2014 11:55 Ice Warning 30.9F 31F 32F 75 0% - 100% 1 mhos 0 None None - -
11/23/2014 11:45 Wet 32.2F 31F 32F 90 0% 0.00 in 0% 1 mhos 0 None None - -
11/23/2014 11:35 Ice Warning 32.0F 31F 32F 90 0% - 100% 0 mhos 0 None None - -
11/23/2014 11:25 Wet 32.5F 31F 32F 95 0% 0.00 in 0% 0 mhos 0 None None - -
11/23/2014 11:14 Ice Warning 31.8F 31F 32F 95 0% - 100% 0 mhos 0 None None - -
11/23/2014 11:04 Wet 32.2F 31F 32F 95 0% 0.10 in 0% 0 mhos 0 None None - -
11/23/2014 11:01 Ice Warning 31.5F 31F 32F 95 0% - 100% 0 mhos 0 None None - -
11/23/2014 10:54 Ice Warning 29.7F 31F 32F 95 0% - 100% 0 mhos 0 None None - -
11/23/2014 10:44 Ice Warning 28.8F 31F 32F 95 0% - 100% 0 mhos 0 None None - -
Date/Time
(MST)
Sf
Temp Chem Water Layer Surface Precipitation
Sf Sub Frz Factor Pct Depth IcePct Cond Salin Type Intens Accum Rate
11/23/2014 10:34 Ice Warning 27.5F 31F 32F 95 0% - 100% 0 mhos 0 None None - -
11/23/2014 10:31 Ice Warning 27.5F 31F 32F 95 0% - 100% 0 mhos 0 None None - -
11/23/2014 10:24 Ice Warning 27.9F 31F 32F 95 0% - 100% 0 mhos 0 None None - -
11/23/2014 10:14 Ice Warning 28.8F 31F 32F 95 0% - 100% 0 mhos 0 None None - -
11/23/2014 10:04 Ice Warning 28.4F 31F 32F 95 0% - 100% 0 mhos 0 None None - -
11/23/2014 10:01 Ice Warning 28.4F 31F 32F 95 0% - 100% 0 mhos 0 None None - -
11/23/2014 09:54 Ice Warning 28.0F 31F 32F 95 0% - 100% 0 mhos 0 None None - -
11/23/2014 09:44 Ice Warning 27.5F 31F 32F 95 0% - 100% 0 mhos 0 None None - -
11/23/2014 09:34 Ice Warning 27.1F 31F 32F 90 0% - 100% 0 mhos 0 None None - -
11/23/2014 09:31 Ice Warning 27.1F 31F 32F 90 0% - 100% 0 mhos 0 None None - -
11/23/2014 09:24 Ice Warning 26.6F 31F 32F 65 0% - 100% 0 mhos 0 None None - -
11/23/2014 09:14 Ice Warning 26.2F 31F 32F 55 0% - 100% 0 mhos 0 None None - -
11/23/2014 09:04 Ice Warning 25.9F 32F 32F 60 0% - 100% 0 mhos 0 None None - -
11/23/2014 09:00 Ice Warning 26.1F 31F 32F 60 0% - 100% 0 mhos 0 None None - -
11/23/2014 08:54 Ice Warning 25.9F 32F 32F 55 0% - 100% 0 mhos 0 None None - -
Date/Time
(MST)
Sf
Temp Chem Water Layer Surface Precipitation
Sf Sub Frz Factor Pct Depth IcePct Cond Salin Type Intens Accum Rate
11/23/2014 08:44 Ice Warning 25.7F 31F 32F 55 0% - 100% 0 mhos 0 None None - -
11/23/2014 08:34 Ice Warning 25.9F 31F 32F 55 0% - 100% 0 mhos 0 None None - -
11/23/2014 08:30 Ice Warning 25.9F 31F 32F 50 0% - 100% 0 mhos 0 None None - -
11/23/2014 08:24 Ice Warning 25.7F 31F 32F 40 0% - 100% 0 mhos 0 None None - -
11/23/2014 08:14 Ice Warning 25.7F 31F 32F 20 0% - 100% 0 mhos 0 Yes - - -
11/23/2014 08:04 Ice Warning 25.7F 31F 32F 20 0% - 100% 0 mhos 0 Yes - - -
11/23/2014 08:01 Ice Warning 25.5F 31F 32F 20 0% - 100% 0 mhos 0 Yes - - -
11/23/2014 07:54 Ice Warning 25.3F 31F 32F 20 0% - 100% 0 mhos 0 None None - -
11/23/2014 07:44 Ice Warning 25.3F 31F 32F 25 0% - 100% 0 mhos 0 None None - -
11/23/2014 07:34 Ice Warning 25.3F 32F 32F 20 0% - 100% 0 mhos 0 None None - -
11/23/2014 07:30 Ice Warning 25.3F 31F 32F 20 0% - 100% 0 mhos 0 None None - -
11/23/2014 07:24 Ice Warning 25.2F 31F 32F 20 0% - 100% 0 mhos 0 None None - -
11/23/2014 07:14 Ice Warning 25.2F 32F 32F 20 0% - 100% 0 mhos 0 None None - -
11/23/2014 07:04 Ice Warning 25.2F 32F 32F 20 0% - 100% 0 mhos 0 None None - -
11/23/2014 07:01 Ice Warning 25.0F 32F 32F 20 0% - 100% 0 mhos 0 None None - -
Date/Time
(MST)
Sf
Temp Chem Water Layer Surface Precipitation
Sf Sub Frz Factor Pct Depth IcePct Cond Salin Type Intens Accum Rate
11/23/2014 06:54 Ice Warning 25.3F 32F 32F 20 0% - 100% 0 mhos 0 None None - -
11/23/2014 06:44 Ice Warning 25.2F 32F 32F 20 0% - 100% 0 mhos 0 None None - -
11/23/2014 06:34 Ice Warning 25.2F 32F 32F 20 0% - 100% 0 mhos 0 None None - -
11/23/2014 06:31 Ice Warning 24.8F 32F 32F 20 0% - 100% 0 mhos 0 None None - -
11/23/2014 06:24 Ice Warning 24.6F 31F 32F 20 0% - 100% 0 mhos 0 None None - -
11/23/2014 06:14 Ice Warning 24.6F 32F 32F 20 0% - 100% 0 mhos 0 None None - -
11/23/2014 06:04 Ice Warning 24.6F 32F 32F 20 0% - 100% 0 mhos 0 None None - -
11/23/2014 06:01 Ice Warning 24.4F 32F 32F 20 0% - 100% 0 mhos 0 None None - -
11/23/2014 05:54 Ice Warning 24.4F 32F 32F 20 0% - 100% 0 mhos 0 None None - -
11/23/2014 05:44 Ice Warning 24.3F 32F 32F 20 0% - 100% 0 mhos 0 None None - -
11/23/2014 05:34 Ice Warning 24.4F 32F 32F 20 0% - 100% 0 mhos 0 None None - -
11/23/2014 05:30 Ice Warning 24.4F 32F 32F 20 0% - 100% 0 mhos 0 None None - -
11/23/2014 05:24 Ice Warning 24.4F 32F 32F 20 0% - 100% 0 mhos 0 None None - -
11/23/2014 05:14 Ice Warning 24.4F 32F 32F 20 0% - 100% 0 mhos 0 None None - -
11/23/2014 05:04 Ice Warning 24.3F 32F 32F 20 0% - 100% 0 mhos 0 None None - -
Date/Time
(MST)
Sf
Temp Chem Water Layer Surface Precipitation
Sf Sub Frz Factor Pct Depth IcePct Cond Salin Type Intens Accum Rate
11/23/2014 05:00 Ice Warning 24.1F 32F 32F 20 0% - 100% 0 mhos 0 None None - -
11/23/2014 04:54 Ice Warning 24.3F 32F 32F 20 0% - 100% 0 mhos 0 None None - -
11/23/2014 04:43 Ice Warning 24.8F 32F 32F 25 0% - 100% 0 mhos 0 None None - -
11/23/2014 04:33 Ice Warning 24.6F 32F 32F 25 0% - 100% 0 mhos 0 None None - -
11/23/2014 04:30 Ice Warning 24.4F 32F 32F 25 0% - 100% 0 mhos 0 None None - -
11/23/2014 04:23 Ice Warning 24.3F 32F 32F 25 0% - 100% 0 mhos 0 Yes - - -
11/23/2014 04:13 Ice Warning 24.3F 32F 32F 25 0% - 100% 0 mhos 0 None None - -
11/23/2014 04:03 Ice Warning 24.8F 32F 32F 30 0% - 100% 0 mhos 0 None None - -
11/23/2014 03:53 Ice Warning 25.5F 32F 32F 40 0% - 100% 0 mhos 0 Yes - - -
11/23/2014 03:43 Ice Warning 25.7F 32F 32F 45 0% - 100% 0 mhos 0 Yes - - -
11/23/2014 03:33 Ice Warning 26.1F 32F 32F 45 0% - 100% 0 mhos 0 Yes - - -
11/23/2014 03:30 Ice Warning 26.1F 32F 32F 45 0% - 100% 0 mhos 0 Yes - - -
11/23/2014 03:23 Ice Warning 26.1F 32F 32F 45 0% - 100% 0 mhos 0 Yes - - -
11/23/2014 03:13 Ice Warning 25.9F 32F 32F 45 0% - 100% 0 mhos 0 Yes - - -
11/23/2014 03:03 Ice Warning 26.2F 32F 32F 50 0% - 100% 0 mhos 0 Yes - - -
Date/Time
(MST)
Sf
Temp Chem Water Layer Surface Precipitation
Sf Sub Frz Factor Pct Depth IcePct Cond Salin Type Intens Accum Rate
11/23/2014 03:01 Ice Warning 26.4F 32F 32F 50 0% - 100% 0 mhos 0 Yes - - -
11/23/2014 02:53 Ice Warning 26.8F 32F 32F 60 0% - 100% 0 mhos 0 Yes - - -
11/23/2014 02:43 Ice Warning 26.6F 32F 32F 60 0% - 100% 0 mhos 0 Yes - - -
11/23/2014 02:33 Ice Warning 26.2F 32F 32F 60 0% - 100% 0 mhos 0 None None - -
11/23/2014 02:31 Ice Warning 26.2F 32F 32F 60 0% - 100% 0 mhos 0 None None - -
11/23/2014 02:23 Ice Warning 25.9F 32F 32F 65 0% - 100% 0 mhos 0 Yes - - -
11/23/2014 02:13 Ice Warning 25.9F 32F 32F 65 0% - 100% 0 mhos 0 None None - -
11/23/2014 02:03 Ice Warning 26.1F 32F 32F 80 0% - 100% 0 mhos 0 Yes - - -
11/23/2014 02:02 Ice Warning 26.1F 32F 32F 80 0% - 100% 0 mhos 0 Yes - - -
11/23/2014 01:53 Ice Warning 26.1F 32F 32F 90 0% - 100% 0 mhos 0 None None - -
11/23/2014 01:43 Ice Warning 25.9F 32F 32F 95 0% - 100% 0 mhos 0 Yes - - -
11/23/2014 01:33 Ice Warning 26.1F 32F 32F 95 0% - 100% 0 mhos 0 None None - -
11/23/2014 01:30 Ice Warning 26.1F 32F 32F 95 0% - 100% 0 mhos 0 None None - -
11/23/2014 01:23 Ice Warning 25.9F 32F 32F 95 0% - 100% 0 mhos 0 None None - -
11/23/2014 01:13 Ice Warning 25.7F 32F 32F 95 0% - 100% 0 mhos 0 None None - -
Date/Time
(MST)
Sf
Temp Chem Water Layer Surface Precipitation
Sf Sub Frz Factor Pct Depth IcePct Cond Salin Type Intens Accum Rate
11/23/2014 01:02 Ice Warning 25.3F 32F 32F 95 0% - 100% 0 mhos 0 None None - -
11/23/2014 01:00 Ice Warning 25.3F 32F 32F 95 0% - 100% 0 mhos 0 None None - -
11/23/2014 00:52 Ice Warning 25.0F 32F 32F 95 0% - 100% 0 mhos 0 None None - -
11/23/2014 00:42 Ice Warning 25.0F 32F 32F 95 0% - 100% 0 mhos 0 None None - -
11/23/2014 00:32 Ice Warning 25.5F 32F 32F 95 0% - 100% 0 mhos 0 None None - -
11/23/2014 00:30 Ice Warning 25.5F 32F 32F 95 0% - 100% 0 mhos 0 None None - -
11/23/2014 00:22 Ice Warning 25.7F 32F 32F 95 0% - 100% 0 mhos 0 None None - -
11/23/2014 00:12 Ice Warning 25.7F 32F 32F 95 0% - 100% 0 mhos 0 None None - -
11/23/2014 00:11 Ice Warning 25.7F 32F 32F 95 0% - 100% 0 mhos 0 None None - -
11/23/2014 00:05 Ice Warning 25.7F 32F 32F 95 0% - 100% 0 mhos 0 None None - -
11/23/2014 00:02 Ice Warning 25.7F 32F 32F 95 0% - 100% 0 mhos 0 None None - -
11/22/2014 23:52 Ice Warning 25.7F 32F 32F 95 0% - 100% 0 mhos 0 None None - -
11/22/2014 23:42 Ice Warning 25.9F 32F 32F 95 0% - 100% 0 mhos 0 None None - -
11/22/2014 23:32 Ice Warning 25.9F 32F 32F 95 0% - 100% 0 mhos 0 None None - -
11/22/2014 23:30 Ice Warning 25.9F 32F 32F 95 0% - 100% 0 mhos 0 None None - -
Date/Time
(MST)
Sf
Temp Chem Water Layer Surface Precipitation
Sf Sub Frz Factor Pct Depth IcePct Cond Salin Type Intens Accum Rate
11/22/2014 23:22 Ice Warning 25.7F 32F 32F 95 0% - 100% 0 mhos 0 None None - -
11/22/2014 23:12 Ice Warning 25.7F 32F 32F 95 0% - 100% 0 mhos 0 None None - -
11/22/2014 23:02 Ice Warning 25.7F 32F 32F 95 0% - 100% 0 mhos 0 None None - -
11/22/2014 23:00 Ice Warning 25.5F 32F 32F 95 0% - 100% 0 mhos 0 None None - -
11/22/2014 22:52 Ice Warning 25.5F 32F 32F 95 0% - 100% 0 mhos 0 None None - -
11/22/2014 22:42 Ice Warning 25.5F 32F 32F 95 0% - 100% 0 mhos 0 None None - -
11/22/2014 22:31 Ice Warning 25.3F 32F 32F 95 0% - 100% 0 mhos 0 None None - -
11/22/2014 22:30 Ice Warning 25.3F 32F 32F 95 0% - 100% 0 mhos 0 None None - -
11/22/2014 22:21 Ice Warning 25.3F 32F 32F 95 0% - 100% 0 mhos 0 None None - -
11/22/2014 22:11 Ice Warning 25.2F 32F 32F 90 0% - 100% 0 mhos 0 None None - -
11/22/2014 22:01 Ice Warning 25.0F 32F 32F 90 0% - 100% 0 mhos 0 None None - -
11/22/2014 22:01 Ice Warning 25.0F 32F 32F 90 0% - 100% 0 mhos 0 None None - -
11/22/2014 21:51 Ice Warning 24.6F 32F 32F 90 0% - 100% 0 mhos 0 None None - -
11/22/2014 21:41 Ice Warning 24.3F 32F 32F 85 0% - 100% 0 mhos 0 None None - -
11/22/2014 21:31 Ice Warning 24.1F 32F 32F 85 0% - 100% 0 mhos 0 None None - -
Date/Time
(MST)
Sf
Temp Chem Water Layer Surface Precipitation
Sf Sub Frz Factor Pct Depth IcePct Cond Salin Type Intens Accum Rate
11/22/2014 21:30 Ice Warning 24.1F 32F 32F 85 0% - 100% 0 mhos 0 None None - -
11/22/2014 21:21 Ice Warning 23.9F 32F 32F 80 0% - 100% 0 mhos 0 None None - -
11/22/2014 21:11 Ice Warning 23.5F 32F 32F 80 0% - 100% 0 mhos 0 None None - -
11/22/2014 21:01 Ice Warning 23.7F 32F 32F 80 0% - 100% 0 mhos 0 None None - -
11/22/2014 21:00 Ice Warning 23.7F 32F 32F 80 0% - 100% 0 mhos 0 None None - -
11/22/2014 20:51 Ice Warning 23.5F 31F 32F 80 0% - 100% 0 mhos 0 None None - -
11/22/2014 20:41 Ice Warning 23.4F 32F 32F 80 0% - 100% 0 mhos 0 None None - -
11/22/2014 20:31 Ice Warning 23.4F 32F 32F 80 0% - 100% 0 mhos 0 None None - -
11/22/2014 20:31 Ice Warning 23.4F 31F 32F 80 0% - 100% 0 mhos 0 None None - -
11/22/2014 20:21 Ice Warning 23.4F 32F 32F 75 0% - 100% 0 mhos 0 None None - -
11/22/2014 20:11 Ice Warning 23.5F 32F 32F 85 0% - 100% 0 mhos 0 None None - -
11/22/2014 20:01 Ice Warning 23.9F 32F 32F 85 0% - 100% 0 mhos 0 None None - -
11/22/2014 20:01 Ice Warning 23.9F 32F 32F 85 0% - 100% 0 mhos 0 None None - -
11/22/2014 19:51 Ice Warning 23.9F 32F 32F 90 0% - 100% 0 mhos 0 None None - -
11/22/2014 19:41 Ice Warning 24.3F 32F 32F 90 0% - 100% 0 mhos 0 None None - -
Date/Time
(MST)
Sf
Temp Chem Water Layer Surface Precipitation
Sf Sub Frz Factor Pct Depth IcePct Cond Salin Type Intens Accum Rate
11/22/2014 19:31 Ice Warning 24.6F 32F 32F 90 0% - 100% 0 mhos 0 None None - -
11/22/2014 19:30 Ice Warning 24.6F 32F 32F 95 0% - 100% 0 mhos 0 None None - -
11/22/2014 19:20 Ice Warning 24.4F 31F 32F 85 0% - 100% 0 mhos 0 None None - -
11/22/2014 19:10 Ice Warning 24.6F 32F 32F 85 0% - 100% 0 mhos 0 None None - -
11/22/2014 19:00 Ice Warning 24.6F 32F 32F 90 0% - 100% 0 mhos 0 None None - -
11/22/2014 18:50 Ice Warning 25.0F 32F 32F 90 0% - 100% 0 mhos 0 None None - -
11/22/2014 18:40 Ice Warning 25.0F 32F 32F 85 0% - 100% 0 mhos 0 None None - -
11/22/2014 18:30 Ice Warning 25.3F 32F 32F 85 0% - 100% 0 mhos 0 None None - -
11/22/2014 18:30 Ice Warning 25.3F 32F 32F 85 0% - 100% 0 mhos 0 None None - -
11/22/2014 18:20 Ice Warning 25.2F 32F 32F 80 0% - 100% 0 mhos 0 None None - -
11/22/2014 18:10 Ice Warning 25.3F 32F 32F 70 0% - 100% 0 mhos 0 None None - -
11/22/2014 18:01 Ice Warning 25.7F 31F 32F 75 0% - 100% 0 mhos 0 None None - -
11/22/2014 18:00 Ice Warning 25.7F 32F 32F 75 0% - 100% 0 mhos 0 None None - -
11/22/2014 17:50 Ice Warning 25.7F 32F 32F 80 0% - 100% 0 mhos 0 None None - -
11/22/2014 17:40 Ice Warning 26.1F 32F 32F 55 0% - 100% 0 mhos 0 None None - -
Date/Time
(MST)
Sf
Temp Chem Water Layer Surface Precipitation
Sf Sub Frz Factor Pct Depth IcePct Cond Salin Type Intens Accum Rate
11/22/2014 17:31 Ice Warning 26.2F 31F 32F 50 0% - 100% 0 mhos 0 None None - -
11/22/2014 17:30 Ice Warning 26.2F 31F 32F 40 0% - 100% 0 mhos 0 None None - -
11/22/2014 17:20 Ice Warning 26.4F 31F 32F 15 0% - 100% 0 mhos 0 None None - -
11/22/2014 17:10 Ice Warning 26.6F 32F 32F 15 0% - 100% 0 mhos 0 None None - -
11/22/2014 17:01 Ice Warning 26.8F 32F 32F 15 0% - 100% 0 mhos 0 None None - -
11/22/2014 17:00 Ice Warning 27.0F 31F 32F 15 0% - 100% 0 mhos 0 None None - -
11/22/2014 16:50 Other - 31F - - - - - - - Yes - - -
11/22/2014 16:01 Ice Warning 29.5F 31F 32F 40 0% - 100% 0 mhos 0 None None - -
11/22/2014 15:53 Ice Warning 30.0F 31F 32F 35 0% - 100% 0 mhos 0 None None - -
11/22/2014 15:42 Ice Warning 30.7F 31F 32F 35 0% - 100% 0 mhos 0 None None - -
11/22/2014 15:32 Ice Warning 31.5F 31F 32F 30 0% - 100% 0 mhos 0 None None - -
11/22/2014 15:31 Ice Warning 31.8F 31F 32F 35 0% - 100% 0 mhos 0 None None - -
11/22/2014 15:22 Ice Warning 31.8F 32F 32F 30 0% - 100% 1 mhos 0 None None - -
11/22/2014 15:12 Wet 32.4F 31F 32F 20 0% 0.00 in 0% 1 mhos 0 None None - -
Change End Date:
Copyright © 1998-2005 Surface Systems, Inc.
All Rights Reserved
Send comments about the data to:
SCAN Web ® is a registered trademark of Surface Systems, Inc.
SCAN Web Version 5.6